Philadelphia Wings Airport, PA

3:28 PM EDT on September 22, 2017 (GMT -0400)
Philadelphia Wings Airport

Weather History for KLOM - July, 2013

Change the Weather History Date:

Tuesday, July 9, 2013

  Actual Average (KPNE) Record (KPNE)
Temperature  
Mean Temperature 77 °F -  
Max Temperature 86 °F 83 °F 96 °F (2007)
Min Temperature 68 °F 63 °F 60 °F (2005)
Cooling Degree Days 12    
Growing Degree Days 27 (Base 50)    
Moisture  
Dew Point 69 °F    
Average Humidity 80    
Maximum Humidity 100    
Minimum Humidity 55    
Precipitation  
Precipitation 0.18 in - - ()
Sea Level Pressure  
Sea Level Pressure 30.06 in    
Wind  
Wind Speed 0 mph (SW)    
Max Wind Speed 9 mph    
Max Gust Speed 9 mph    
Visibility 7 miles    
Events      
Averages and records for this station are not official NWS values.
T = Trace of Precipitation, MM = Missing Value Source: NWS Daily Summary

Daily Weather History Graph

Daily Weather History Graph

Search for Another Location

Airport or City:

Trip Planner

Search our weather history database for the weather conditions in past years. The results will help you decide how hot, cold, wet, or windy it might be!

Date:

Astronomy

Jul. 09, 2013 Rise Set
Actual Time 5:40 AM EDT 8:32 PM EDT
Civil Twilight 5:07 AM EDT 9:04 PM EDT
Nautical Twilight 4:27 AM EDT 9:45 PM EDT
Astronomical Twilight 3:40 AM EDT 10:31 PM EDT
Moon 7:02 AM EDT (7/9) 9:08 PM EDT (7/9)
Length of Visible Light 15h 56m
Length of Day
14h 51m
New Moon, 2% of the Moon is Illuminated
Jul 9
New Moon
Jul 15
First Quarter
Jul 22
Full
Jul 29
Last Quarter
Aug 6
New

Hourly Weather History & Observations

Time (EDT) Temp. Heat Index Dew Point Humidity Pressure Visibility Wind Dir Wind Speed Gust Speed Precip Events Conditions
12:15 AM 69.8 °F - 68.0 °F 94% 30.08 in 7.0 mi Calm Calm - N/A   Scattered Clouds
12:35 AM 69.8 °F - 68.0 °F 94% 30.08 in 7.0 mi Calm Calm - N/A   Scattered Clouds
12:55 AM 71.6 °F - 68.0 °F 88% 30.08 in 10.0 mi Calm Calm - N/A   Scattered Clouds
1:15 AM 71.6 °F - 68.0 °F 88% 30.07 in 10.0 mi Calm Calm - N/A   Clear
1:35 AM 71.6 °F - 68.0 °F 88% 30.06 in 10.0 mi Calm Calm - N/A   Clear
1:55 AM 71.6 °F - 68.0 °F 88% 30.06 in 10.0 mi Calm Calm - N/A   Clear
2:15 AM 71.6 °F - 68.0 °F 88% 30.06 in 10.0 mi Calm Calm - N/A   Clear
2:35 AM 69.8 °F - 68.0 °F 94% 30.06 in 10.0 mi Calm Calm - N/A   Clear
2:55 AM 69.8 °F - 66.2 °F 88% 30.05 in 10.0 mi Calm Calm - N/A   Clear
3:15 AM 68.0 °F - 66.2 °F 94% 30.05 in 5.0 mi Calm Calm - N/A   Clear
3:35 AM 68.0 °F - 66.2 °F 94% 30.05 in 4.0 mi Calm Calm - N/A   Clear
3:55 AM 68.0 °F - 66.2 °F 94% 30.05 in 3.0 mi Calm Calm - N/A   Clear
4:15 AM 68.0 °F - 66.2 °F 94% 30.06 in 3.0 mi Calm Calm - N/A   Clear
4:35 AM 68.0 °F - 66.2 °F 94% 30.06 in 4.0 mi Calm Calm - N/A   Clear
4:55 AM 68.0 °F - 66.2 °F 94% 30.06 in 3.0 mi Calm Calm - N/A   Clear
5:15 AM 68.0 °F - 66.2 °F 94% 30.07 in 4.0 mi Calm Calm - N/A   Clear
5:35 AM 68.0 °F - 66.2 °F 94% 30.07 in 4.0 mi Calm Calm - N/A   Clear
5:55 AM 68.0 °F - 68.0 °F 100% 30.08 in 2.5 mi Calm Calm - N/A   Clear
6:15 AM 68.0 °F - 68.0 °F 100% 30.08 in 2.5 mi Calm Calm - N/A   Clear
6:35 AM 69.8 °F - 68.0 °F 94% 30.08 in 5.0 mi Calm Calm - N/A   Clear
6:55 AM 71.6 °F - 68.0 °F 88% 30.08 in 7.0 mi Calm Calm - N/A   Clear
7:15 AM 71.6 °F - 68.0 °F 88% 30.08 in 7.0 mi Calm Calm - N/A   Clear
7:35 AM 73.4 °F - 68.0 °F 83% 30.09 in 10.0 mi Calm Calm - N/A   Clear
7:55 AM 75.2 °F - 68.0 °F 78% 30.08 in 10.0 mi Calm Calm - N/A   Clear
8:15 AM 77.0 °F - 69.8 °F 78% 30.08 in 10.0 mi Calm Calm - N/A   Clear
8:35 AM 78.8 °F - 69.8 °F 74% 30.08 in 10.0 mi Calm Calm - N/A   Clear
8:55 AM 77.0 °F - 68.0 °F 74% 30.08 in 10.0 mi Calm Calm - N/A   Clear
9:15 AM 78.8 °F - 69.8 °F 74% 30.08 in 10.0 mi Calm Calm - N/A   Clear
9:35 AM 78.8 °F - 68.0 °F 69% 30.08 in 10.0 mi Calm Calm - N/A   Clear
9:55 AM 78.8 °F - 68.0 °F 69% 30.08 in 10.0 mi Calm Calm - N/A   Clear
10:15 AM 80.6 °F 83.2 °F 68.0 °F 65% 30.08 in 10.0 mi Calm Calm - N/A   Clear
10:35 AM 80.6 °F 83.9 °F 69.8 °F 70% 30.09 in 10.0 mi Calm Calm - N/A   Clear
10:55 AM 80.6 °F 83.2 °F 68.0 °F 65% 30.09 in 10.0 mi Calm Calm - N/A   Clear
11:15 AM 80.6 °F 83.9 °F 69.8 °F 70% 30.09 in 10.0 mi Calm Calm - N/A   Clear
11:35 AM 80.6 °F 83.9 °F 69.8 °F 70% 30.09 in 10.0 mi Calm Calm - N/A   Clear
11:55 AM 80.6 °F 83.9 °F 69.8 °F 70% 30.08 in 10.0 mi Calm Calm - N/A   Clear
12:15 PM 80.6 °F 83.9 °F 69.8 °F 70% 30.09 in 10.0 mi Calm Calm - N/A   Clear
12:35 PM 82.4 °F 87.2 °F 71.6 °F 70% 30.08 in 10.0 mi Calm Calm - N/A   Clear
12:55 PM 82.4 °F 87.2 °F 71.6 °F 70% 30.08 in 10.0 mi Calm Calm - N/A   Clear
1:15 PM 82.4 °F 86.3 °F 69.8 °F 66% 30.08 in 10.0 mi Calm Calm - N/A   Clear
1:35 PM 84.2 °F 88.4 °F 69.8 °F 62% 30.07 in 10.0 mi Calm Calm - N/A   Clear
1:55 PM 84.2 °F 88.4 °F 69.8 °F 62% 30.07 in 10.0 mi Calm Calm - N/A   Scattered Clouds
2:15 PM 86.0 °F 90.4 °F 69.8 °F 58% 30.06 in 10.0 mi Calm Calm - N/A   Clear
2:35 PM 84.2 °F 88.4 °F 69.8 °F 62% 30.05 in 10.0 mi SSW 3.5 mph - N/A   Clear
2:55 PM 86.0 °F 90.4 °F 69.8 °F 58% 30.05 in 10.0 mi SSW 5.8 mph - N/A   Clear
3:15 PM 84.2 °F 88.4 °F 69.8 °F 62% 30.04 in 10.0 mi WSW 6.9 mph - N/A   Scattered Clouds
3:35 PM 86.0 °F 90.4 °F 69.8 °F 58% 30.04 in 10.0 mi SW 5.8 mph 9.2 mph N/A   Scattered Clouds
3:55 PM 86.0 °F 90.4 °F 69.8 °F 58% 30.04 in 10.0 mi Calm Calm - N/A   Scattered Clouds
4:15 PM 84.2 °F 88.4 °F 69.8 °F 62% 30.03 in 10.0 mi Calm Calm - N/A   Mostly Cloudy
4:35 PM 86.0 °F 90.4 °F 69.8 °F 58% 30.03 in 10.0 mi SW 9.2 mph - N/A   Scattered Clouds
4:55 PM 86.0 °F 89.4 °F 68.0 °F 55% 30.03 in 10.0 mi SW 8.1 mph - N/A   Scattered Clouds
5:15 PM 82.4 °F 85.4 °F 68.0 °F 62% 30.02 in 10.0 mi SW 3.5 mph - N/A   Scattered Clouds
5:35 PM 82.4 °F 86.3 °F 69.8 °F 66% 30.01 in 10.0 mi Calm Calm - N/A   Scattered Clouds
5:55 PM 82.4 °F 86.3 °F 69.8 °F 66% 30.01 in 10.0 mi Calm Calm - N/A   Mostly Cloudy
6:15 PM 82.4 °F 86.3 °F 69.8 °F 66% 30.01 in 10.0 mi Calm Calm - N/A   Scattered Clouds
6:35 PM 78.8 °F - 68.0 °F 69% 30.01 in 7.0 mi Calm Calm - N/A   Mostly Cloudy
6:55 PM 73.4 °F - 69.8 °F 88% 30.01 in 0.8 mi Calm Calm - 0.02 in   Overcast
7:15 PM 73.4 °F - 69.8 °F 88% 30.02 in 5.0 mi Calm Calm - 0.03 in   Mostly Cloudy
7:35 PM 73.4 °F - 71.6 °F 94% 30.02 in 5.0 mi Calm Calm - 0.07 in   Overcast
7:55 PM 75.2 °F - 71.6 °F 89% 30.03 in 7.0 mi Calm Calm - 0.10 in   Mostly Cloudy
8:15 PM 73.4 °F - 71.6 °F 94% 30.02 in 3.0 mi Calm Calm - 0.03 in   Scattered Clouds
8:35 PM 73.4 °F - 71.6 °F 94% 30.02 in 2.0 mi Calm Calm - 0.05 in   Mostly Cloudy
8:55 PM 73.4 °F - 71.6 °F 94% 30.02 in 5.0 mi Calm Calm - 0.06 in   Mostly Cloudy
9:15 PM 73.4 °F - 71.6 °F 94% 30.03 in 4.0 mi Calm Calm - N/A   Mostly Cloudy
9:35 PM 73.4 °F - 71.6 °F 94% 30.04 in 2.5 mi Calm Calm - N/A   Overcast
9:55 PM 73.4 °F - 71.6 °F 94% 30.04 in 4.0 mi Calm Calm - N/A   Overcast
10:15 PM 73.4 °F - 71.6 °F 94% 30.05 in 3.0 mi Calm Calm - N/A   Mostly Cloudy
10:35 PM 73.4 °F - 71.6 °F 94% 30.05 in 2.5 mi Calm Calm - N/A   Overcast
10:55 PM 73.4 °F - 71.6 °F 94% 30.04 in 2.5 mi Calm Calm - N/A   Mostly Cloudy
11:15 PM 73.4 °F - 71.6 °F 94% 30.04 in 2.0 mi Calm Calm - N/A   Overcast
11:35 PM 73.4 °F - 71.6 °F 94% 30.03 in 1.5 mi Calm Calm - N/A   Mostly Cloudy
11:55 PM 73.4 °F - 71.6 °F 94% 30.03 in 1.8 mi Calm Calm - N/A   Mostly Cloudy